When you browse on this site, cookies collect data to enhance your experience and personalize the content and advertising you see.
Visit our Privacy Policy to learn more. By continuing to use the site, you agree to this use of cookies and data.
  • In Belgium
  • List of Countries
  • For 7 days
  • Water Temperature
  • Satellite Maps
  • Weather Map
  • Weather Widgets
  • user-avatar
    Login

    Hourly Weather Ugrinovci

    Today, 19 December, Wednesday

    Time Temperature Precipitation Wind Pressure Humidity
    00:00 -3°C° 0 mm 1 mps 766 mmHg 91%
    01:00 -5°C° 0 mm 0 mps 766 mmHg 91%
    02:00 -5°C° 0 mm 0 mps 766 mmHg 91%
    03:00 -6°C° 0 mm 0 mps 766 mmHg 91%
    04:00 -6°C° 0 mm 0 mps 766 mmHg 91%
    05:00 -6°C° 0 mm 0 mps 766 mmHg 91%
    06:00 -6°C° 0 mm 1 mps 766 mmHg 91%
    07:00 -7°C° 0 mm 1 mps 766 mmHg 92%
    08:00 -4°C° 0 mm 1 mps 766 mmHg 91%
    09:00 -3°C° 0 mm 1 mps 766 mmHg 90%
    10:00 -2°C° 0 mm 1 mps 766 mmHg 89%
    11:00 -1°C° 0 mm 1 mps 765 mmHg 88%
    12:00 -1°C° 0 mm 1 mps 765 mmHg 88%
    13:00 0°C° 0 mm 1 mps 764 mmHg 87%
    14:00 -1°C° 0 mm 1 mps 764 mmHg 89%
    15:00 -4°C° 0 mm 2 mps 764 mmHg 91%
    16:00 -5°C° 0 mm 2 mps 763 mmHg 93%
    17:00 -5°C° 0 mm 2 mps 763 mmHg 93%
    18:00 -6°C° 0 mm 2 mps 763 mmHg 92%
    19:00 -6°C° 0 mm 2 mps 763 mmHg 92%
    20:00 -6°C° 0 mm 2 mps 763 mmHg 92%
    21:00 -6°C° 0 mm 2 mps 763 mmHg 91%
    22:00 -6°C° 0 mm 2 mps 763 mmHg 90%
    23:00 -6°C° 0 mm 2 mps 762 mmHg 90%

    Tomorrow, 20 December, Thursday

    Time Temperature Precipitation Wind Pressure Humidity
    00:00 -6°C° 0 mm 2 mps 762 mmHg 89%
    01:00 -5°C° 0 mm 2 mps 762 mmHg 88%
    02:00 -5°C° 0 mm 2 mps 762 mmHg 88%
    03:00 -5°C° 0 mm 2 mps 762 mmHg 87%
    04:00 -5°C° 0 mm 2 mps 762 mmHg 87%
    05:00 -5°C° 0 mm 2 mps 762 mmHg 87%
    06:00 -5°C° 0 mm 2 mps 762 mmHg 86%
    07:00 -5°C° 0 mm 2 mps 762 mmHg 86%
    08:00 -4°C° 0 mm 2 mps 762 mmHg 85%
    09:00 -3°C° 0 mm 2 mps 762 mmHg 84%
    10:00 -2°C° 0 mm 2 mps 762 mmHg 83%
    11:00 -1°C° 0 mm 2 mps 762 mmHg 86%
    12:00 -1°C° 0 mm 2 mps 762 mmHg 88%
    13:00 +2°C° 0 mm 1 mps 762 mmHg 90%
    14:00 +2°C° 0 mm 1 mps 762 mmHg 88%
    15:00 -1°C° 0 mm 2 mps 762 mmHg 86%
    16:00 -1°C° 0 mm 2 mps 762 mmHg 84%
    17:00 -1°C° 0 mm 2 mps 762 mmHg 83%
    18:00 -1°C° 0 mm 2 mps 762 mmHg 82%
    19:00 -1°C° 0 mm 2 mps 763 mmHg 81%
    20:00 -1°C° 0 mm 2 mps 763 mmHg 81%
    21:00 -1°C° 0 mm 2 mps 763 mmHg 81%
    22:00 -2°C° 0 mm 2 mps 763 mmHg 80%
    23:00 +1°C° 0 mm 1 mps 763 mmHg 81%

    Day after tomorrow, 21 December, Friday

    Time Temperature Precipitation Wind Pressure Humidity
    00:00 +1°C° 0 mm 1 mps 763 mmHg 83%
    01:00 +1°C° 0 mm 1 mps 763 mmHg 84%
    02:00 +1°C° 0.1 mm 1 mps 763 mmHg 85%
    03:00 +1°C° 0.1 mm 1 mps 763 mmHg 86%
    04:00 +1°C° 0.1 mm 1 mps 763 mmHg 87%
    05:00 +1°C° 0 mm 1 mps 763 mmHg 87%
    06:00 +1°C° 0 mm 1 mps 763 mmHg 86%
    07:00 +1°C° 0 mm 1 mps 764 mmHg 86%
    08:00 +2°C° 0 mm 1 mps 763 mmHg 89%
    09:00 +2°C° 0 mm 1 mps 763 mmHg 92%
    10:00 +3°C° 0 mm 1 mps 763 mmHg 95%
    11:00 +4°C° 0 mm 1 mps 763 mmHg 96%
    12:00 +4°C° 0 mm 1 mps 762 mmHg 98%
    13:00 +3°C° 0 mm 2 mps 761 mmHg 99%
    14:00 +3°C° 0 mm 2 mps 761 mmHg 95%
    15:00 +3°C° 0 mm 2 mps 761 mmHg 92%
    16:00 +2°C° 0 mm 2 mps 761 mmHg 88%
    17:00 +3°C° 0 mm 2 mps 761 mmHg 87%
    18:00 +3°C° 0 mm 2 mps 761 mmHg 86%
    19:00 +3°C° 0 mm 2 mps 761 mmHg 86%
    20:00 +3°C° 0 mm 2 mps 760 mmHg 86%
    21:00 +3°C° 0 mm 2 mps 760 mmHg 86%
    22:00 +3°C° 0 mm 2 mps 760 mmHg 86%
    23:00 +3°C° 0 mm 2 mps 760 mmHg 86%

    22 December, Saturday

    Time Temperature Precipitation Wind Pressure Humidity
    00:00 +3°C° 0 mm 2 mps 760 mmHg 86%
    01:00 +3°C° 0 mm 2 mps 760 mmHg 86%
    02:00 +3°C° 0 mm 2 mps 760 mmHg 85%
    03:00 +3°C° 0 mm 2 mps 760 mmHg 85%
    04:00 +2°C° 0 mm 3 mps 760 mmHg 84%
    05:00 +3°C° 0 mm 2 mps 759 mmHg 84%
    06:00 +3°C° 0 mm 2 mps 759 mmHg 84%
    07:00 +3°C° 0 mm 2 mps 759 mmHg 84%
    08:00 +4°C° 0 mm 2 mps 759 mmHg 86%
    09:00 +4°C° 0 mm 2 mps 759 mmHg 88%
    10:00 +3°C° 0 mm 3 mps 758 mmHg 90%
    11:00 +4°C° 0 mm 3 mps 758 mmHg 90%
    12:00 +6°C° 0 mm 2 mps 757 mmHg 90%
    13:00 +6°C° 0 mm 2 mps 757 mmHg 91%
    14:00 +6°C° 0 mm 2 mps 757 mmHg 89%
    15:00 +5°C° 0 mm 3 mps 757 mmHg 87%
    16:00 +5°C° 0 mm 3 mps 757 mmHg 85%
    17:00 +6°C° 0 mm 2 mps 757 mmHg 85%
    18:00 +5°C° 0 mm 2 mps 758 mmHg 85%
    19:00 +5°C° 0 mm 2 mps 758 mmHg 85%
    20:00 +5°C° 0.2 mm 2 mps 758 mmHg 87%
    21:00 +5°C° 0.2 mm 2 mps 759 mmHg 88%
    22:00 +6°C° 0.2 mm 2 mps 759 mmHg 89%
    23:00 +6°C° 0.1 mm 2 mps 759 mmHg 89%

    23 December, Sunday

    Time Temperature Precipitation Wind Pressure Humidity
    00:00 +6°C° 0.1 mm 2 mps 759 mmHg 89%
    01:00 +5°C° 0.1 mm 3 mps 759 mmHg 89%
    02:00 +6°C° 0.3 mm 2 mps 759 mmHg 89%
    03:00 +6°C° 0.3 mm 2 mps 759 mmHg 90%
    04:00 +6°C° 0.3 mm 2 mps 759 mmHg 90%
    05:00 +6°C° 0.2 mm 2 mps 760 mmHg 90%
    06:00 +6°C° 0.2 mm 2 mps 760 mmHg 90%
    07:00 +6°C° 0.2 mm 2 mps 760 mmHg 91%
    08:00 +6°C° 0.2 mm 2 mps 761 mmHg 91%
    09:00 +7°C° 0.2 mm 2 mps 761 mmHg 92%
    10:00 +8°C° 0.2 mm 1 mps 761 mmHg 92%
    11:00 +8°C° 0.1 mm 2 mps 761 mmHg 90%
    12:00 +8°C° 0.1 mm 2 mps 761 mmHg 89%
    13:00 +9°C° 0.1 mm 2 mps 761 mmHg 87%
    14:00 +8°C° 0 mm 2 mps 761 mmHg 88%
    15:00 +8°C° 0 mm 2 mps 761 mmHg 89%
    16:00 +8°C° 0 mm 2 mps 761 mmHg 89%
    17:00 +8°C° 0.3 mm 2 mps 761 mmHg 90%
    18:00 +9°C° 0.3 mm 1 mps 761 mmHg 90%
    19:00 +8°C° 0.3 mm 1 mps 761 mmHg 91%
    20:00 +8°C° 0.3 mm 1 mps 761 mmHg 91%
    21:00 +8°C° 0.3 mm 1 mps 762 mmHg 91%
    22:00 +8°C° 0.3 mm 1 mps 762 mmHg 92%
    23:00 +8°C° 0 mm 1 mps 762 mmHg 92%

    24 December, Monday

    Time Temperature Precipitation Wind Pressure Humidity
    00:00 +7°C° 0 mm 1 mps 762 mmHg 93%
    01:00 +6°C° 0 mm 2 mps 762 mmHg 93%
    02:00 +6°C° 0 mm 2 mps 762 mmHg 93%
    03:00 +6°C° 0 mm 2 mps 762 mmHg 92%
    04:00 +6°C° 0 mm 2 mps 762 mmHg 92%
    05:00 +7°C° 0.1 mm 1 mps 762 mmHg 91%
    06:00 +7°C° 0.1 mm 1 mps 762 mmHg 91%
    07:00 +7°C° 0.1 mm 1 mps 762 mmHg 90%
    08:00 +7°C° 0.9 mm 1 mps 762 mmHg 91%
    09:00 +7°C° 0.9 mm 1 mps 762 mmHg 92%
    10:00 +5°C° 0.9 mm 2 mps 763 mmHg 93%
    11:00 +5°C° 0.8 mm 2 mps 763 mmHg 92%
    12:00 +5°C° 0.8 mm 2 mps 763 mmHg 91%
    13:00 +4°C° 0.8 mm 3 mps 763 mmHg 90%
    14:00 +4°C° 0.2 mm 3 mps 763 mmHg 90%
    15:00 +4°C° 0.2 mm 3 mps 764 mmHg 90%
    16:00 +4°C° 0.2 mm 3 mps 764 mmHg 89%
    17:00 +4°C° 0 mm 3 mps 764 mmHg 90%
    18:00 +3°C° 0 mm 3 mps 765 mmHg 91%
    19:00 +3°C° 0 mm 3 mps 765 mmHg 91%
    20:00 +2°C° 0 mm 3 mps 765 mmHg 91%
    21:00 +3°C° 0 mm 2 mps 766 mmHg 91%
    22:00 +3°C° 0 mm 2 mps 766 mmHg 90%
    23:00 +3°C° 0 mm 2 mps 766 mmHg 90%
    Show more